Regional Weather Roundup
Issued by NWS Kansas City/Pleasant Hill, MO

Home | Current Version | Previous Version | Graphics & Text | Print | Product List | Glossary Off
Versions: 1 2 3 4 5 6 7 8 9 10 11 12 13 14 15 16 17 18 19 20 21 22 23 24 25 26 27

000
ASUS43 KEAX 221610
RWREAX

WEATHER ROUNDUP FOR EASTERN KANSAS AND NORTHWEST MISSOURI
NATIONAL WEATHER SERVICE KANSAS CITY/PLEASANT HILL MO
1000 AM CST WED FEB 22 2017

KSZ040-057-103>105-MOZ028-029-037-043-221700-
...KANSAS CITY METROPOLITAN AREA...

CITY           SKY/WX    TMP DP  RH WIND       PRES   REMARKS
K.C. INTL      PTSUNNY   64  41  42 S15       29.73F
K.C. DOWNTOWN  SUNNY     67  42  40 SW16G30   29.73F
LEES SUMMIT    PTSUNNY   62  47  57 S20       29.77F
OLATHE - IXD   PTSUNNY   57  45  64 S9        29.77F
OLATHE - OJC   MOSUNNY   57  46  66 S13       29.77F
LAWRENCE       MOSUNNY   61  38  42 S7        29.75F

$$

MOZ001>008-011>017-020>025-030>033-038>040-044>046-053-054-221700-
...NORTHERN AND CENTRAL MISSOURI...

CITY           SKY/WX    TMP DP  RH WIND       PRES   REMARKS
ST. JOSEPH     SUNNY     63  36  36 SW16G23   29.71S
WARRENSBURG    MOSUNNY   59  50  72 S14       29.80F
WHITEMAN AFB   MOSUNNY   58  58 100 SW17      29.79F
CLINTON        CLOUDY    55  55 100 SW8       29.84S FOG
SEDALIA        CLOUDY    57  55  93 S13       29.83F
WARSAW         NOT AVBL
CHILLICOTHE      N/A     63  49  60 S13G21    29.75F
KIRKSVILLE     SUNNY     60  52  74 SW16      29.77F

$$

MOZ041-047>049-056>058-063>065-088>090-097-221700-
...EASTERN AND SOUTHERN MISSOURI...

CITY           SKY/WX    TMP DP  RH WIND       PRES   REMARKS
ST. LOUIS INTL CLOUDY    57  54  89 SW10      29.85S FOG
SPIRIT OF STL  CLOUDY    56  55  97 SW8       29.85R FOG
COLUMBIA       FOG       55  55 100 S10       29.83S VSB 1/4
JEFFERSON CITY CLOUDY    54  54 100 S6        29.84F FOG
ROLLA          FOG       54  54 100 S10       29.84F VSB 1
OSAGE BEACH    CLOUDY    54  54 100 SW9       29.87S FOG
SPRINGFIELD    CLOUDY    55  55 100 S10       29.87S FOG
BRANSON        CLOUDY    55  55 100 CALM      29.90R FOG
JOPLIN         MOSUNNY   57  57 100 S9        29.87S
WEST PLAINS    PTSUNNY   60  55  83 S5        29.90F

$$

IAZ060-094-KSZ022-034>040-054-083-096-NEZ052-066-093-221700-
...KANSAS...SOUTHEAST NEBRASKA AND IOWA...

CITY           SKY/WX    TMP DP  RH WIND       PRES   REMARKS
TOPEKA           N/A     60  38  43 S8        29.73F
MANHATTAN      MOSUNNY   61  37  41 SW10      29.73R
EMPORIA        CLOUDY    69  33  26 SW26G38   29.74F
CHANUTE        SUNNY     64  45  49 S17       29.81F
WICHITA        MOSUNNY   60  41  49 S15       29.78F
OMAHA          SUNNY     59  36  42 W10       29.66R
LINCOLN        SUNNY     58  32  37 NW9       29.68S
FALLS CITY     SUNNY     65  34  31 SW17G26   29.67F
LAMONI         SUNNY     61  38  42 SW16      29.70F
DES MOINES     MOSUNNY   64  33  31 SW16      29.64F

$$





USA.gov is the U.S. government's official web portal to all federal, state and local government web resources and services.